timestamp,wind_dir_avg,wind_spd_avg,wind_spd_max_dir,wind_spd_gust,battery_voltage,lat,long
2023-06-18 00:04:01+00:00,46.0,1.9,50.0,2.12,12.97,47.59359,-54.27349
2023-06-18 00:14:00+00:00,47.0,2.75,52.0,3.01,12.49,47.59359,-54.27349
2023-06-18 00:24:00+00:00,54.0,3.25,53.0,3.83,12.49,47.59359,-54.27349
2023-06-18 00:34:00+00:00,54.0,4.93,55.0,5.18,12.49,47.59359,-54.27349
2023-06-18 00:44:00+00:00,60.0,5.09,57.0,5.95,12.49,47.59359,-54.27349
2023-06-18 00:54:00+00:00,64.0,5.18,66.0,6.12,12.49,47.59359,-54.27349
2023-06-18 01:04:00+00:00,61.0,5.43,61.0,6.11,12.49,47.59359,-54.27349
2023-06-18 01:14:00+00:00,62.0,5.2,68.0,5.94,12.41,47.59359,-54.27349
2023-06-18 01:24:00+00:00,74.0,4.61,73.0,5.63,12.41,47.59359,-54.27349
2023-06-18 01:34:00+00:00,77.0,3.42,65.0,4.49,12.41,47.59359,-54.27349
2023-06-18 01:44:00+00:00,70.0,3.7,74.0,4.12,12.41,47.59359,-54.27349
2023-06-18 01:54:00+00:00,81.0,2.49,74.0,3.61,12.41,47.59359,-54.27349
2023-06-18 02:04:00+00:00,79.0,2.11,73.0,3.06,12.41,47.59359,-54.27349
2023-06-18 02:14:00+00:00,72.0,1.67,70.0,1.81,12.41,47.59359,-54.27349
2023-06-18 02:24:00+00:00,73.0,1.76,71.0,2.07,12.41,47.59359,-54.27349
2023-06-18 02:34:00+00:00,62.0,1.35,66.0,1.66,12.41,47.59359,-54.27349
2023-06-18 02:44:00+00:00,42.0,3.1,42.0,3.25,12.41,47.59359,-54.27349
2023-06-18 02:54:00+00:00,27.0,2.96,28.0,3.15,12.41,47.59359,-54.27349
2023-06-18 03:04:00+00:00,36.0,2.68,39.0,2.87,12.41,47.59359,-54.27349
2023-06-18 03:14:00+00:00,45.0,3.23,38.0,3.71,12.41,47.59359,-54.27349
2023-06-18 03:24:00+00:00,46.0,4.39,48.0,4.66,12.41,47.59359,-54.27349
2023-06-18 03:34:00+00:00,39.0,3.56,39.0,4.0,12.41,47.59359,-54.27349
2023-06-18 03:44:00+00:00,52.0,3.6,43.0,3.93,12.41,47.59359,-54.27349
2023-06-18 03:54:00+00:00,60.0,3.26,58.0,3.71,12.41,47.59359,-54.27349
2023-06-18 04:04:00+00:00,52.0,3.91,52.0,4.34,12.41,47.59359,-54.27349
2023-06-18 04:14:00+00:00,57.0,5.4,59.0,5.93,12.33,47.59359,-54.27349
2023-06-18 04:24:00+00:00,53.0,5.76,51.0,6.37,12.33,47.59359,-54.27349
2023-06-18 04:34:00+00:00,55.0,5.65,55.0,6.26,12.33,47.59359,-54.27349
2023-06-18 04:44:00+00:00,49.0,5.3,50.0,5.83,12.33,47.59359,-54.27349
2023-06-18 04:54:00+00:00,50.0,4.66,48.0,5.89,12.33,47.59359,-54.27349
2023-06-18 05:04:00+00:00,46.0,6.06,46.0,6.74,12.33,47.59359,-54.27349
2023-06-18 05:14:00+00:00,38.0,5.66,41.0,6.44,12.33,47.59359,-54.27349
2023-06-18 05:24:00+00:00,33.0,6.32,34.0,7.33,12.33,47.59359,-54.27349
2023-06-18 05:34:00+00:00,35.0,6.02,36.0,6.63,12.33,47.59359,-54.27349
2023-06-18 05:44:00+00:00,37.0,5.62,38.0,6.21,12.33,47.59359,-54.27349
2023-06-18 05:54:00+00:00,41.0,5.89,41.0,6.34,12.33,47.59359,-54.27349
2023-06-18 06:04:00+00:00,42.0,5.37,44.0,5.97,12.33,47.59359,-54.27349
2023-06-18 06:14:00+00:00,41.0,5.72,44.0,6.18,12.33,47.59359,-54.27349
2023-06-18 06:24:00+00:00,44.0,5.31,43.0,5.91,12.33,47.59359,-54.27349
2023-06-18 06:34:00+00:00,41.0,5.31,46.0,5.89,12.33,47.59359,-54.27349
2023-06-18 06:44:00+00:00,42.0,5.44,42.0,6.13,12.33,47.59359,-54.27349
2023-06-18 06:54:00+00:00,41.0,5.14,40.0,5.72,12.33,47.59359,-54.27349
2023-06-18 07:04:00+00:00,38.0,5.98,37.0,6.32,12.33,47.59359,-54.27349
2023-06-18 07:14:00+00:00,42.0,6.08,40.0,7.08,12.33,47.59359,-54.27349
2023-06-18 07:24:00+00:00,44.0,5.65,47.0,6.14,12.33,47.59359,-54.27349
2023-06-18 07:34:00+00:00,40.0,5.58,41.0,6.14,12.33,47.59359,-54.27349
2023-06-18 07:44:00+00:00,40.0,5.23,42.0,5.7,12.33,47.59359,-54.27349
2023-06-18 07:54:00+00:00,45.0,5.36,46.0,5.98,12.33,47.59359,-54.27349
2023-06-18 08:04:00+00:00,46.0,5.02,41.0,5.69,12.33,47.59359,-54.27349
2023-06-18 08:14:01+00:00,48.0,4.69,46.0,5.23,12.25,47.59359,-54.27349
2023-06-18 08:24:01+00:00,48.0,5.77,51.0,6.92,12.25,47.59359,-54.27349
2023-06-18 08:34:01+00:00,42.0,6.92,42.0,7.8,12.25,47.59359,-54.27349
2023-06-18 08:44:01+00:00,45.0,6.35,48.0,6.9,12.25,47.59359,-54.27349
2023-06-18 08:54:01+00:00,40.0,5.43,39.0,5.93,12.25,47.59359,-54.27349
2023-06-18 09:04:01+00:00,43.0,4.32,46.0,4.78,12.25,47.59359,-54.27349
2023-06-18 09:14:00+00:00,52.0,5.01,51.0,5.61,12.17,47.59359,-54.27349
2023-06-18 09:24:00+00:00,43.0,4.3,46.0,4.99,12.17,47.59359,-54.27349
2023-06-18 09:34:00+00:00,49.0,4.6,44.0,5.3,12.17,47.59359,-54.27349
2023-06-18 09:44:00+00:00,53.0,5.03,54.0,5.71,12.17,47.59359,-54.27349
2023-06-18 09:54:00+00:00,48.0,5.13,50.0,5.86,12.17,47.59359,-54.27349
2023-06-18 10:04:00+00:00,46.0,5.01,46.0,5.37,12.17,47.59359,-54.27349
2023-06-18 10:14:00+00:00,45.0,4.54,43.0,5.09,12.33,47.59359,-54.27349
2023-06-18 10:24:00+00:00,50.0,3.96,48.0,4.69,12.33,47.59359,-54.27349
2023-06-18 10:34:00+00:00,45.0,4.45,45.0,4.97,12.33,47.59359,-54.27349
2023-06-18 10:44:00+00:00,44.0,4.27,43.0,4.65,12.33,47.59359,-54.27349
2023-06-18 10:54:00+00:00,42.0,4.5,40.0,4.99,12.33,47.59359,-54.27349
2023-06-18 11:04:00+00:00,49.0,5.42,46.0,6.19,12.33,47.59359,-54.27349
2023-06-18 11:14:00+00:00,48.0,6.87,48.0,7.4,12.57,47.59359,-54.27349
2023-06-18 11:24:00+00:00,45.0,6.83,43.0,7.5,12.57,47.59359,-54.27349
2023-06-18 11:34:00+00:00,45.0,7.58,48.0,8.21,12.57,47.59359,-54.27349
2023-06-18 11:44:00+00:00,42.0,6.66,43.0,7.39,12.57,47.59359,-54.27349
2023-06-18 11:54:00+00:00,37.0,6.8,38.0,7.46,12.57,47.59359,-54.27349
2023-06-18 12:04:00+00:00,39.0,7.51,40.0,8.17,12.57,47.59359,-54.27349
2023-06-18 12:14:00+00:00,37.0,7.59,36.0,8.22,13.29,47.59359,-54.27349
2023-06-18 12:24:00+00:00,36.0,7.82,36.0,8.45,13.29,47.59359,-54.27349
2023-06-18 12:34:00+00:00,36.0,7.85,35.0,8.45,13.29,47.59359,-54.27349
2023-06-18 12:44:00+00:00,37.0,7.13,37.0,7.77,13.29,47.59359,-54.27349
2023-06-18 12:54:00+00:00,39.0,6.22,39.0,7.03,13.29,47.59359,-54.27349
2023-06-18 13:04:00+00:00,42.0,5.89,45.0,6.29,13.29,47.59359,-54.27349
2023-06-18 13:14:00+00:00,44.0,5.8,49.0,6.49,13.53,47.59359,-54.27349
2023-06-18 13:24:00+00:00,38.0,5.73,36.0,6.35,13.53,47.59359,-54.27349
2023-06-18 13:34:00+00:00,45.0,5.84,51.0,6.49,13.53,47.59359,-54.27349
2023-06-18 13:44:00+00:00,46.0,5.74,49.0,6.26,13.53,47.59359,-54.27349
2023-06-18 13:54:00+00:00,46.0,4.88,45.0,5.34,13.53,47.59359,-54.27349
2023-06-18 14:04:00+00:00,46.0,3.99,42.0,4.43,13.53,47.59359,-54.27349
2023-06-18 14:14:00+00:00,53.0,3.49,54.0,3.91,13.6,47.59359,-54.27349
2023-06-18 14:24:00+00:00,50.0,3.82,51.0,4.19,13.6,47.59359,-54.27349
2023-06-18 14:34:00+00:00,51.0,3.97,52.0,4.52,13.6,47.59359,-54.27349
2023-06-18 14:44:00+00:00,53.0,3.87,52.0,4.5,13.6,47.59359,-54.27349
2023-06-18 14:54:00+00:00,55.0,4.67,55.0,5.28,13.6,47.59359,-54.27349
2023-06-18 15:04:00+00:00,53.0,4.99,46.0,5.38,13.6,47.59359,-54.27349
2023-06-18 15:14:00+00:00,58.0,4.71,59.0,5.08,13.68,47.59359,-54.27349
2023-06-18 15:24:00+00:00,56.0,4.12,54.0,4.44,13.68,47.59359,-54.27349
2023-06-18 15:34:00+00:00,60.0,4.37,56.0,5.1,13.68,47.59359,-54.27349
2023-06-18 15:44:00+00:00,63.0,4.23,62.0,4.82,13.68,47.59359,-54.27349
2023-06-18 15:54:00+00:00,63.0,3.76,64.0,4.32,13.68,47.59359,-54.27349
2023-06-18 16:04:00+00:00,59.0,3.28,59.0,3.72,13.68,47.59359,-54.27349
2023-06-18 16:14:00+00:00,61.0,4.11,60.0,4.76,13.68,47.59359,-54.27349
2023-06-18 16:24:00+00:00,57.0,4.65,56.0,5.33,13.68,47.59359,-54.27349
2023-06-18 16:34:00+00:00,52.0,5.04,57.0,6.38,13.68,47.59359,-54.27349
2023-06-18 16:44:00+00:00,51.0,5.2,46.0,6.01,13.68,47.59359,-54.27349
2023-06-18 16:54:00+00:00,41.0,4.9,44.0,5.37,13.68,47.59359,-54.27349
2023-06-18 17:04:00+00:00,54.0,4.81,51.0,5.36,13.68,47.59359,-54.27349
2023-06-18 17:14:01+00:00,51.0,4.13,50.0,4.93,13.6,47.59359,-54.27349
2023-06-18 17:24:01+00:00,48.0,4.13,50.0,4.9,13.6,47.59359,-54.27349
2023-06-18 17:34:01+00:00,55.0,5.57,58.0,6.36,13.6,47.59359,-54.27349
2023-06-18 17:44:01+00:00,64.0,6.1,66.0,6.62,13.6,47.59359,-54.27349
2023-06-18 17:54:01+00:00,59.0,5.65,58.0,6.19,13.6,47.59359,-54.27349
2023-06-18 18:04:01+00:00,57.0,5.17,57.0,5.54,13.6,47.59359,-54.27349
2023-06-18 18:14:00+00:00,52.0,4.63,53.0,5.28,13.68,47.59359,-54.27349
2023-06-18 18:24:00+00:00,54.0,5.81,53.0,6.22,13.68,47.59359,-54.27349
2023-06-18 18:34:00+00:00,54.0,5.77,52.0,6.26,13.68,47.59359,-54.27349
2023-06-18 18:44:00+00:00,50.0,5.86,50.0,6.27,13.68,47.59359,-54.27349
2023-06-18 18:54:00+00:00,52.0,5.83,53.0,6.25,13.68,47.59359,-54.27349
2023-06-18 19:04:00+00:00,53.0,4.62,53.0,4.9,13.68,47.59359,-54.27349
2023-06-18 19:14:00+00:00,50.0,4.03,51.0,4.35,13.6,47.59359,-54.27349
2023-06-18 19:24:00+00:00,50.0,3.83,51.0,4.05,13.6,47.59359,-54.27349
2023-06-18 19:34:00+00:00,48.0,3.68,51.0,3.96,13.6,47.59359,-54.27349
2023-06-18 19:44:00+00:00,52.0,1.52,58.0,2.34,13.6,47.59359,-54.27349
2023-06-18 19:54:00+00:00,68.0,3.39,61.0,3.79,13.6,47.59359,-54.27349
2023-06-18 20:04:00+00:00,68.0,3.98,59.0,4.76,13.6,47.59359,-54.27349
2023-06-18 20:14:01+00:00,60.0,2.47,68.0,3.04,13.6,47.59359,-54.27349
2023-06-18 20:24:01+00:00,38.0,2.58,37.0,2.9,13.6,47.59359,-54.27349
2023-06-18 20:34:01+00:00,49.0,2.28,51.0,2.84,13.6,47.59359,-54.27349
2023-06-18 20:44:01+00:00,74.0,3.13,60.0,4.7,13.6,47.59359,-54.27349
2023-06-18 20:54:01+00:00,76.0,3.06,69.0,4.15,13.6,47.59359,-54.27349
2023-06-18 21:04:01+00:00,79.0,3.15,72.0,4.87,13.6,47.59359,-54.27349
2023-06-18 21:14:01+00:00,85.0,2.18,82.0,3.13,13.6,47.59359,-54.27349
2023-06-18 21:24:01+00:00,82.0,2.72,73.0,3.89,13.6,47.59359,-54.27349
2023-06-18 21:34:01+00:00,75.0,3.26,68.0,4.13,13.6,47.59359,-54.27349
2023-06-18 21:44:01+00:00,71.0,3.47,66.0,3.86,13.6,47.59359,-54.27349
2023-06-18 21:54:01+00:00,71.0,3.75,67.0,4.25,13.6,47.59359,-54.27349
2023-06-18 22:04:01+00:00,83.0,1.86,93.0,2.49,13.6,47.59359,-54.27349
2023-06-18 22:14:01+00:00,97.0,2.32,116.0,3.79,13.29,47.59359,-54.27349
2023-06-18 22:24:01+00:00,86.0,2.71,74.0,4.47,13.29,47.59359,-54.27349
2023-06-18 22:34:01+00:00,85.0,3.39,89.0,4.87,13.29,47.59359,-54.27349
2023-06-18 22:44:01+00:00,98.0,3.72,98.0,5.2,13.29,47.59359,-54.27349
2023-06-18 22:54:01+00:00,96.0,2.45,84.0,3.48,13.29,47.59359,-54.27349
2023-06-18 23:04:01+00:00,90.0,3.0,74.0,4.08,13.29,47.59359,-54.27349
2023-06-18 23:14:00+00:00,83.0,3.01,74.0,4.25,12.97,47.59359,-54.27349
2023-06-18 23:24:00+00:00,78.0,2.9,63.0,4.01,12.97,47.59359,-54.27349
2023-06-18 23:34:00+00:00,84.0,3.01,86.0,4.22,12.97,47.59359,-54.27349
2023-06-18 23:44:00+00:00,67.0,4.85,69.0,6.26,12.97,47.59359,-54.27349
2023-06-18 23:54:00+00:00,74.0,5.1,74.0,6.77,12.97,47.59359,-54.27349
